{"data":{"norad_id":67093,"intl_designator":"2025-298U","name":"STARLINK-35784","alt_names":[],"object_type":"PAYLOAD","status":"ACTIVE","operator":null,"country":"US","launch_date":"2025-12-14","launch_site_code":"AFWTR","launch_vehicle":null,"mission":null,"orbit_class":"UNKNOWN","rcs_meters":null,"size_class":null,"mass_kg":null,"dimensions":null,"purposes":["comms"],"wikipedia_slug":null,"has_3d_model":false,"image_url":null,"decayed_at":null,"tle_current":{"epoch":"2026-09-20T09:17:12.366816Z","epoch_age_seconds":88563,"freshness":"FRESH","line1":"1 67093U 25298U   26263.38694869  .00002325  00000+0  20259-3 0  9995","line2":"2 67093  69.9999 243.4575 0003985 266.0324  94.0379 14.98335465 42383","mean_motion":14.98335465,"eccentricity":0.0003985,"inclination_deg":69.9999,"raan_deg":243.4575,"arg_perigee_deg":266.0324,"mean_anomaly_deg":94.0379,"bstar":0.00020259,"rev_number":4238,"period_min":96.10664858687,"perigee_km":569.26934580171,"apogee_km":574.80863606648,"semimajor_km":6950.1759909341,"source":"CELESTRAK","updated_at":"2026-09-21T09:00:36.101321Z"}}}